Weather History for KMTW - May, 2014

Change the Weather History Date:

Wednesday, May 7, 2014

  Actual Average Record
Temperature  
Mean Temperature 46 °F -  
Max Temperature 50 °F 61 °F 82 °F (1986)
Min Temperature 42 °F 40 °F 29 °F (1974)
Degree Days  
Heating Degree Days 19    
Moisture  
Dew Point 42 °F    
Average Humidity 87    
Maximum Humidity 93    
Minimum Humidity 79    
Precipitation  
Precipitation 0.76 in - - ()
Sea Level Pressure  
Sea Level Pressure 29.99 in    
Wind  
Wind Speed 12 mph (East)    
Max Wind Speed 24 mph    
Max Gust Speed 30 mph    
Visibility 9 miles    
Events Rain , Thunderstorm    
Averages and records for this station are not official NWS values.
T = Trace of Precipitation, MM = Missing Value Source: NWS Daily Summary

Daily Weather History Graph

Daily Weather History Graph

Search for Another Location

Airport or City:

Trip Planner

Search our weather history database for the weather conditions in past years. The results will help you decide how hot, cold, wet, or windy it might be!

Date:

Astronomy

May. 07, 2014 Rise Set
Actual Time 5:33 AM CDT 8:01 PM CDT
Civil Twilight 5:01 AM CDT 8:34 PM CDT
Nautical Twilight 4:20 AM CDT 9:14 PM CDT
Astronomical Twilight 3:35 AM CDT 10:00 PM CDT
Moon 12:51 PM CDT 1:48 AM CDT
Length of Visible Light 15h 32m
Length of Day
14h 27m
First Quarter, 55% of the Moon is Illuminated
May 7
First Quarter
May 14
Full
May 21
Last Quarter
May 28
New
Jun 5
First Quarter

Hourly Weather History & Observations

Time (CDT) Temp. Windchill Dew Point Humidity Pressure Visibility Wind Dir Wind Speed Gust Speed Precip Events Conditions
1:56 AM 44.1 °F 35.7 °F 37.9 °F 79% 30.04 in 10.0 mi SSE 20.7 mph 25.3 mph 0.01 in Rain Light Rain
2:14 AM 44.6 °F 43.1 °F 39.2 °F 81% 29.99 in 10.0 mi Variable 3.5 mph 24.2 mph 0.01 in Rain , Thunderstorm Light Thunderstorms and Rain
2:43 AM 42.8 °F 37.0 °F 39.2 °F 87% 29.96 in 10.0 mi East 10.4 mph - 0.03 in Rain , Thunderstorm Light Rain
2:56 AM 44.1 °F 37.7 °F 37.9 °F 79% 30.03 in 10.0 mi East 12.7 mph 17.3 mph 0.03 in Rain , Thunderstorm Light Rain
3:08 AM 42.8 °F 36.6 °F 37.4 °F 81% 29.97 in 10.0 mi East 11.5 mph - 0.00 in Rain Light Rain
3:56 AM 43.0 °F 38.2 °F 37.0 °F 80% 30.05 in 10.0 mi ENE 8.1 mph - 0.00 in Rain , Thunderstorm Light Rain
4:56 AM 42.1 °F 34.9 °F 37.9 °F 85% 30.05 in 10.0 mi SE 13.8 mph 18.4 mph 0.04 in Rain , Thunderstorm Light Rain
5:26 AM 42.8 °F 35.8 °F 37.4 °F 81% 29.95 in 10.0 mi East 13.8 mph - 0.00 in   Overcast
5:56 AM 42.1 °F 36.6 °F 39.0 °F 89% 30.05 in 10.0 mi East 9.2 mph - 0.00 in Thunderstorm Overcast
6:45 AM 42.8 °F 36.2 °F 39.2 °F 87% 29.97 in 10.0 mi East 12.7 mph 17.3 mph 0.00 in Rain , Thunderstorm Light Rain
6:56 AM 43.0 °F 35.4 °F 39.9 °F 89% 30.03 in 10.0 mi East 16.1 mph 20.7 mph 0.00 in Rain , Thunderstorm Light Rain
7:11 AM 42.8 °F 36.6 °F 39.2 °F 87% 29.97 in 10.0 mi East 11.5 mph 19.6 mph 0.00 in   Overcast
7:56 AM 44.1 °F 39.5 °F 39.9 °F 85% 30.07 in 10.0 mi East 8.1 mph - 0.00 in   Overcast
8:56 AM 46.0 °F 40.6 °F 42.1 °F 86% 30.06 in 10.0 mi East 11.5 mph - 0.00 in   Overcast
9:22 AM 46.4 °F 41.5 °F 42.8 °F 87% 29.99 in 9.0 mi East 10.4 mph - 0.00 in   Overcast
9:56 AM 46.9 °F - 42.1 °F 83% 30.05 in 10.0 mi East 15.0 mph - 0.00 in   Overcast
10:56 AM 48.9 °F - 43.0 °F 80% 30.03 in 10.0 mi East 15.0 mph 21.9 mph N/A   Overcast
11:56 AM 48.0 °F - 42.1 °F 80% 30.04 in 10.0 mi East 10.4 mph - N/A   Overcast
12:20 PM 48.2 °F - 42.8 °F 82% 30.10 in 10.0 mi WNW 9.2 mph - 0.01 in Rain , Thunderstorm Light Thunderstorms and Rain
12:37 PM 46.4 °F 41.5 °F 44.6 °F 93% 30.01 in 7.0 mi North 10.4 mph 19.6 mph 0.08 in Rain , Thunderstorm Heavy Thunderstorms and Rain
12:56 PM 46.0 °F 39.0 °F 43.0 °F 89% 30.04 in 4.0 mi East 17.3 mph - 0.18 in Rain , Thunderstorm Heavy Rain
1:06 PM 46.4 °F 40.4 °F 42.8 °F 87% 29.95 in 6.0 mi ENE 13.8 mph 26.5 mph 0.03 in Rain Rain
1:30 PM 44.6 °F 37.8 °F 42.8 °F 93% 29.93 in 8.0 mi ENE 15.0 mph 20.7 mph 0.07 in Rain , Thunderstorm Thunderstorms and Rain
1:54 PM 46.4 °F 38.1 °F 44.6 °F 93% 29.87 in 10.0 mi East 24.2 mph 29.9 mph 0.10 in Rain Light Rain
1:56 PM 46.0 °F 38.0 °F 43.0 °F 89% 29.95 in 10.0 mi East 21.9 mph 29.9 mph 0.10 in Rain , Thunderstorm Light Rain
2:56 PM 46.0 °F 40.6 °F 44.1 °F 93% 30.01 in 3.0 mi East 11.5 mph - 0.27 in Rain , Thunderstorm Thunderstorms and Rain
3:17 PM 46.4 °F 41.5 °F 44.6 °F 93% 29.92 in 10.0 mi East 10.4 mph - 0.07 in Rain Light Rain
3:29 PM 46.4 °F 41.1 °F 44.6 °F 93% 29.91 in 10.0 mi ESE 11.5 mph - 0.10 in   Overcast
3:56 PM 48.0 °F - 45.0 °F 89% 30.00 in 10.0 mi East 11.5 mph - 0.13 in   Overcast
4:13 PM 48.2 °F - 44.6 °F 87% 29.93 in 10.0 mi East 11.5 mph - N/A   Overcast
4:56 PM 48.9 °F - 46.0 °F 90% 30.02 in 10.0 mi NE 6.9 mph - N/A   Overcast
5:56 PM 48.0 °F - 45.0 °F 89% 29.99 in 10.0 mi ENE 5.8 mph - N/A   Overcast
6:23 PM 48.2 °F - 44.6 °F 87% 29.89 in 10.0 mi NE 6.9 mph - N/A   Scattered Clouds
6:56 PM 50.0 °F - 46.9 °F 89% 29.96 in 10.0 mi ENE 8.1 mph - N/A   Clear
7:08 PM 50.0 °F - 46.4 °F 87% 29.90 in 10.0 mi ENE 6.9 mph - N/A   Partly Cloudy
7:56 PM 48.0 °F - 46.0 °F 93% 29.97 in 10.0 mi ENE 8.1 mph - N/A   Mostly Cloudy
8:56 PM 46.9 °F - 45.0 °F 93% 29.98 in 10.0 mi ENE 6.9 mph - N/A   Partly Cloudy
9:56 PM 46.9 °F - 45.0 °F 93% 29.98 in 10.0 mi NE 5.8 mph - N/A   Scattered Clouds
10:56 PM 48.9 °F - 46.0 °F 90% 29.97 in 10.0 mi East 6.9 mph - N/A   Partly Cloudy
11:56 PM 46.0 °F 44.8 °F 44.1 °F 93% 29.95 in 10.0 mi ENE 3.5 mph - N/A   Overcast